TIME,DELAY(SENSOR),PRES,OXYGEN,RAWTEMP,T(OPTODE),TCPHASE,FLUOR,BETA(BETA700),BETA(BETA412),BETA(BETA440),CDOM,C(CSC),ED(ED412.20),ED(ED444.00),ED(ED489.60),ED(ED554.30),LU(LU412.10),LU(LU443.90),LU(LU489.70),LU(LU554.70),COMP,TILTX,TILTY,CHECK
1351653058,5809,902.1599731445312000,33.8196411132812500,554.7777709960938000,4.6476311683654785,56.4159812927246100,55,100,101,78,81,15544,0,0,0,0,2147122093,2147775808,2147574354,2147570020,2651,3,13,7555
1351656654,5809,952.1199951171875000,38.2869300842285160,560.9926147460938000,4.4551301002502440,55.7769393920898440,55,103,101,77,82,15545,0,0,0,0,2147123913,2147772178,2147570395,2147572288,3335,3,12,25410
1351660254,5809,962.6799926757812000,38.5817718505859400,562.1422729492188000,4.4194850921630860,55.7437591552734400,56,99,106,78,83,15547,0,0,0,0,2147124690,2147775186,2147575890,2147565330,261,3,13,26999
1351663854,5813,992.3800048828125000,38.3550109863281250,563.9708862304688000,4.3627638816833500,55.7979393005371100,55,98,100,77,83,15540,0,0,0,0,2147125952,2147774217,2147573257,2147570834,585,3,13,40477
1351667454,5809,1000.0800170898438000,38.5835990905761700,564.3848266601562000,4.3499240875244140,55.7708702087402340,55,97,102,81,83,15540,0,0,0,0,2147123062,2147766619,2147576155,2147567981,203,3,13,1103
1351671054,5808,1004.7700195312500000,38.1469497680664060,564.0590209960938000,4.3600330352783200,55.8326110839843750,56,98,101,78,82,15541,0,0,0,0,2147122642,2147770889,2147574308,2147566875,477,3,13,43231
1351674654,5808,1002.7299804687500000,37.9495315551757800,564.2329101562500000,4.3546347618103030,55.8663902282714840,54,98,100,78,82,15536,0,0,0,0,2147123885,2147775396,2147571410,2147566016,368,3,13,57795
1351678254,5807,1001.7299804687500000,37.9623718261718750,564.5712280273438000,4.3441410064697270,55.8632011413574200,56,98,100,78,83,15541,0,0,0,0,2147122331,2147775414,2147573366,2147569106,114,3,13,13812
1351681854,5812,1001.9500122070312000,37.8959617614746100,565.5178833007812000,4.3147578239440920,55.8836898803710940,54,97,100,78,82,15539,0,0,0,0,2147123821,2147774948,2147570468,2147568274,2249,3,13,23987
1351685454,5812,1004.3800048828125000,38.6048011779785160,566.5164794921875000,4.2837600708007810,55.7893791198730500,55,97,99,78,81,15538,0,0,0,0,2147124827,2147774473,2147572873,2147568384,3307,3,13,59713
1351689054,5809,1006.9400024414062000,38.3708610534668000,565.2979125976562000,4.3215889930725100,55.8140907287597660,55,101,100,78,82,15538,0,0,0,0,2147124196,2147769270,2147577316,2147567451,395,3,13,43383
1351692654,5811,1002.5800170898438000,38.5955390930175800,566.9027709960938000,4.2717690467834470,55.7964706420898440,55,100,100,77,83,15523,0,0,0,0,2147127314,2147771428,2147572169,2147569307,3352,3,13,3617
1351696254,5810,1009.4099731445312000,38.8297004699707000,566.6021728515625000,4.2810988426208500,55.7541007995605500,56,98,100,78,81,15522,0,0,0,0,2147124882,2147774491,2147577865,2147567698,236,3,13,58414
1351699854,5809,1007.6400146484375000,38.6486091613769500,566.4821166992188000,4.2848300933837890,55.7849006652832000,54,97,100,77,82,15522,0,0,0,0,2147124699,2147774692,2147571812,2147566546,506,3,13,39423
1351703454,5809,1006.7899780273438000,38.9343795776367200,567.1157226562500000,4.2651581764221190,55.7434501647949200,55,99,101,78,82,15521,0,0,0,0,2147122560,2147772032,2147572416,2147570075,155,3,13,59972
1351707054,5809,1008.0800170898438000,39.4009590148925800,567.4467773437500000,4.2548727989196780,55.6799812316894500,56,99,100,77,82,15518,0,0,0,0,2147123428,2147776832,2147574866,2147569654,3351,3,13,32294
1351710654,5810,1006.1599731445312000,39.2530899047851560,568.2581176757812000,4.2296772003173830,55.7118415832519500,56,98,101,79,82,15518,0,0,0,0,2147125312,2147775826,2147572973,2147569389,452,3,13,10740
1351714254,5811,1011.1300048828125000,38.9481697082519500,567.2122802734375000,4.2621569633483890,55.7411003112793000,55,98,101,78,84,15516,0,0,0,0,2147126683,2147770368,2147573622,2147569499,166,3,13,665
1351717854,5809,1010.1400146484375000,38.8706283569335940,567.1959228515625000,4.2626671791076660,55.7576103210449200,55,98,101,77,83,15520,0,0,0,0,2147124589,2147770971,2147575972,2147567158,3558,3,13,55722
1351721454,5810,1012.6799926757812000,39.0950508117675800,567.0145874023438000,4.2682971954345700,55.7224502563476560,55,97,100,78,82,15517,0,0,0,0,2147124096,2147772406,2147570916,2147566683,82,3,13,47484
1351725054,5811,1012.7700195312500000,38.9153900146484400,566.7495727539062000,4.2765250205993650,55.7458381652832000,54,97,100,78,82,15515,0,0,0,0,2147124562,2147772836,2147574765,2147570550,3098,3,13,39570
1351728654,5810,1019.4699707031250000,38.3606796264648440,565.3895874023438000,4.3187432289123535,55.8178100585937500,56,98,99,77,82,15514,0,0,0,0,2147123885,2147771986,2147576256,2147569856,57,3,13,48368
1351732254,5808,1015.6799926757812000,37.6921195983886700,565.0922851562500000,4.3279690742492680,55.9176597595214840,55,100,100,79,83,15516,0,0,0,0,2147122121,2147772022,2147573549,2147570340,133,3,13,24894
1351735854,5808,1009.2800292968750000,38.3950309753418000,566.7236938476562000,4.2773280143737790,55.8184318542480500,54,98,100,78,83,15509,0,0,0,0,2147123236,2147773220,2147572169,2147570971,300,3,13,33449
1351739454,5810,1012.9799804687500000,39.4046211242675800,567.7772827148438000,4.2446122169494630,55.6809082031250000,55,98,100,78,81,15511,0,0,0,0,2147124992,2147767424,2147575625,2147568612,2999,3,13,47277
1351743054,5809,1014.3300170898438000,39.3636817932128900,567.5015258789062000,4.2531762123107910,55.6805686950683600,55,99,99,77,81,15515,0,0,0,0,2147123986,2147771684,2147572617,2147569444,342,3,13,29423
1351746654,5810,1017.5900268554688000,38.8302917480468750,566.3762207031250000,4.2881159782409670,55.7546081542968750,55,97,99,78,83,15513,0,0,0,0,2147122742,2147774080,2147572452,2147571318,163,3,13,12587
1351750254,5809,1014.6900024414062000,38.4983901977539060,566.5651245117188000,4.2822508811950680,55.8085899353027340,55,100,98,78,83,15514,0,0,0,0,2147123821,2147766729,2147576704,2147571190,572,3,13,7280
1351753854,5811,1020.9299926757812000,38.5084991455078100,565.5319213867188000,4.3143248558044430,55.7932701110839840,55,100,100,78,82,15512,0,0,0,0,2147122249,2147768640,2147574418,2147571739,406,3,13,5277
1351757454,5808,1019.3699951171875000,38.0388412475585940,565.9641113281250000,4.3009109497070310,55.8690910339355500,54,97,101,78,81,15512,0,0,0,0,2147123483,2147769883,2147572470,2147572022,167,3,13,41492
1351761054,5811,1024.1899414062500000,38.9921112060546900,566.7868041992188000,4.2753701210021970,55.7346191406250000,55,98,101,77,82,15510,0,0,0,0,2147124699,2147773302,2147576356,2147569243,1604,3,13,8472
1351764654,5809,1018.3900146484375000,38.0593490600585940,566.3040161132812000,4.2903580665588380,55.8730201721191400,55,98,100,77,83,15528,0,0,0,0,2147123858,2147776036,2147572278,2147567899,3576,3,13,55626
1351768254,5806,1016.5599975585938000,38.9131507873535160,567.4838867187500000,4.2537231445312500,55.7507400512695300,54,106,101,77,81,15529,0,0,0,0,2147127314,2147771035,2147578093,2147570761,192,3,13,1448
1351771854,5812,1014.7800292968750000,39.4004783630371100,568.2412719726562000,4.2302021980285645,55.6836204528808600,55,97,101,79,81,15530,0,0,0,0,2147122450,2147769014,2147575277,2147570267,2,3,13,64000
1351775454,5813,1014.9099731445312000,38.9103088378906250,567.4813842773438000,4.2537989616394040,55.7514610290527340,56,99,100,78,82,15477,0,0,0,0,2147125229,2147770715,2147572205,2147568612,211,3,13,32681
1351779054,5808,1016.7299804687500000,38.9213294982910160,567.6176757812500000,4.2495689392089840,55.7510108947753900,55,97,101,78,82,15467,0,0,0,0,2147122578,2147771995,2147570294,2147570761,3173,3,13,56390
1351782654,5810,1017.1400146484375000,39.6582298278808600,567.8652954101562000,4.2418789863586430,55.6455802917480500,55,97,101,77,82,15471,0,0,0,0,2147123136,2147776548,2147573202,2147569435,2229,3,13,54580
1351786254,5810,1017.0900268554688000,39.3405303955078100,568.0698242187500000,4.2355270385742190,55.6948089599609400,55,98,101,78,84,15471,0,0,0,0,2147123776,2147777874,2147572388,2147571510,3123,3,13,8137
1351789854,5811,1016.2299804687500000,39.2494812011718750,567.3726806640625000,4.2571768760681150,55.7034912109375000,55,98,101,78,82,15474,0,0,0,0,2147124205,2147769270,2147571346,2147568210,127,3,13,35704
1351793454,5808,1014.7899780273438000,38.7450904846191400,567.3319702148438000,4.2584419250488280,55.7786903381347660,54,98,101,78,82,15472,0,0,0,0,2147122212,2147774400,2147571090,2147566820,833,3,13,25683
1351797054,5809,1021.5499877929688000,38.7951393127441400,567.5659790039062000,4.2511730194091800,55.7699089050293000,56,101,101,78,83,15479,0,0,0,0,2147122962,2147773888,2147575643,2147572050,2863,3,13,38587
1351797957,5808,1018.8900146484375000,39.1583213806152340,567.3361816406250000,4.2583098411560060,55.7111892700195300,56,101,100,78,83,15479,0,0,0,0,2147124608,2147769737,2147574436,2147568521,876,3,13,49971
